CW2927 Weather Reports


time (UTC)temp
F
wind
direction
speed
knots
gust
knots
rain 1hr
in
rain 24hr
in
rain mn
in
humidity
%
barometer
mb
20260505100703 54 144 1.7 5.2 0.00 0.31 0.00 70 1000.4
20260505100204 54 146 1.7 6.1 0.00 0.31 0.00 70 1000.5
20260505094704 53 148 2.6 5.2 0.00 0.31 0.00 71 1000.4
20260505094204 53 140 2.6 5.2 0.00 0.31 0.00 71 1000.3
20260505092204 52 142 1.7 7.0 0.00 0.31 0.00 73 1000.4
20260505090704 50 138 2.6 5.2 0.00 0.31 0.00 76 1000.5
20260505090204 50 130 1.7 5.2 0.00 0.31 0.00 76 1000.5
20260505084704 51 140 1.7 2.6 0.00 0.31 0.00 75 1000.6
20260505084204 51 140 1.7 2.6 0.00 0.31 0.00 74 1000.7
20260505082704 52 141 2.6 4.3 0.00 0.31 0.00 74 1000.8
20260505082204 52 141 1.7 5.2 0.00 0.31 0.00 74 1000.7
20260505080704 51 135 1.7 4.3 0.00 0.31 0.00 75 1000.7
20260505080204 51 132 1.7 7.0 0.00 0.31 0.00 76 1000.7
20260505074705 51 131 2.6 4.3 0.00 0.31 0.00 76 1000.7
20260505074205 51 132 1.7 4.3 0.00 0.31 0.00 75 1000.7
20260505072705 51 145 1.7 2.6 0.00 0.31 0.00 75 1000.8
20260505072205 51 147 1.7 4.3 0.00 0.31 0.00 75 1000.9
20260505070705 52 154 2.6 4.3 0.00 0.31 0.00 74 1000.9
20260505070205 52 155 1.7 4.3 0.00 0.31 0.00 74 1000.9
20260505064706 53 161 1.7 6.1 0.00 0.31 0.00 73 1001.0
20260505064205 53 157 3.5 6.1 0.00 0.31 0.00 73 1001.0
20260505062705 52 145 2.6 5.2 0.00 0.31 0.00 74 1001.0
20260505062205 52 152 2.6 4.3 0.00 0.31 0.00 74 1001.1
20260505060705 52 145 2.6 6.1 0.00 0.31 0.00 75 1001.1
20260505060205 52 150 2.6 5.2 0.00 0.31 0.00 75 1001.2
20260505054705 51 144 2.6 4.3 0.00 0.31 0.00 78 1001.2
20260505054205 51 136 1.7 5.2 0.00 0.31 0.00 79 1001.2
20260505052705 50 117 1.7 4.3 0.00 0.31 0.00 81 1001.4
20260505052205 50 116 1.7 4.3 0.00 0.31 0.00 81 1001.4
20260505050705 50 104 1.7 4.3 0.00 0.31 0.00 82 1001.6
20260505050205 50 103 1.7 2.6 0.00 0.31 0.00 82 1001.6
20260505040705 49 90 0.9 2.6 0.00 0.31 0.00 84 1002.0
20260505040204 50 90 0.9 2.6 0.00 0.31 0.00 84 1002.0
20260505034705 50 90 0.9 2.6 0.00 0.31 0.31 84 1002.0
20260505034205 51 90 0.9 2.6 0.00 0.31 0.31 84 1002.0
20260505032705 51 90 1.7 4.3 0.00 0.31 0.31 84 1002.0
20260505032205 51 90 0.9 2.6 0.00 0.31 0.31 84 1002.0
20260505030705 51 90 1.7 5.2 0.00 0.31 0.31 84 1002.2
20260505030205 51 90 2.6 4.3 0.00 0.31 0.31 84 1002.2
20260505024705 51 88 1.7 2.6 0.00 0.31 0.31 84 1002.4
20260505024205 52 88 1.7 4.3 0.00 0.31 0.31 84 1002.5
20260505022704 52 88 0.9 2.6 0.00 0.31 0.31 84 1002.8
20260505022205 52 88 0.9 4.3 0.00 0.31 0.31 84 1002.7
20260505020705 53 88 2.6 4.3 0.00 0.31 0.31 83 1002.7
20260505020205 53 88 1.7 5.2 0.00 0.31 0.31 83 1002.8
20260505014705 53 88 1.7 2.6 0.00 0.31 0.31 83 1002.9
20260505014205 53 88 0.9 4.3 0.00 0.31 0.31 82 1003.0
20260505012705 54 88 2.6 5.2 0.00 0.31 0.31 82 1003.2
20260505012205 54 88 2.6 6.1 0.00 0.31 0.31 81 1003.2
20260505010705 54 90 4.3 6.1 0.00 0.31 0.31 80 1003.1
20260505010205 54 100 3.5 5.2 0.00 0.31 0.31 80 1003.3
20260505004705 55 104 1.7 2.6 0.00 0.31 0.31 79 1003.2
20260505004204 55 104 1.7 6.1 0.00 0.31 0.31 78 1002.9
20260505002704 55 138 1.7 4.3 0.00 0.31 0.31 78 1003.2
20260505002204 55 152 1.7 2.6 0.00 0.31 0.31 79 1003.1
20260505000705 54 167 1.7 2.6 0.00 0.31 0.31 80 1002.8
20260505000205 55 167 0.9 2.6 0.00 0.31 0.31 80 1002.9
20260504234705 55 169 0.9 1.7 0.00 0.31 0.31 80 1002.8
20260504232705 57 169 0.0 0.0 0.00 0.31 0.31 75 1002.8
20260504232205 57 169 0.0 1.7 0.00 0.31 0.31 76 1002.8
20260504230705 58 169 0.0 0.0 0.00 0.31 0.31 74 1002.7
20260504230205 58 169 0.0 1.7 0.00 0.31 0.31 72 1002.7
20260504224705 58 169 0.9 2.6 0.00 0.31 0.31 72 1002.7
20260504224205 58 169 0.9 2.6 0.00 0.31 0.31 72 1002.7
20260504222704 59 169 0.9 1.7 0.00 0.31 0.31 70 1002.7
20260504222204 60 169 1.7 4.3 0.00 0.31 0.31 69 1002.9
20260504220704 60 167 1.7 2.6 0.00 0.31 0.31 71 1003.0
20260504220205 59 167 1.7 6.1 0.00 0.31 0.31 72 1003.0
20260504214704 59 169 1.7 5.2 0.00 0.31 0.31 72 1003.1
20260504214205 59 161 3.5 7.8 0.00 0.31 0.31 71 1003.1
20260504212704 58 191 0.9 5.2 0.00 0.31 0.31 73 1003.1
20260504212204 58 192 2.6 6.1 0.00 0.31 0.31 74 1003.2
20260504210705 57 185 1.7 4.3 0.00 0.31 0.31 75 1003.3
20260504210205 57 182 2.6 6.1 0.00 0.31 0.31 75 1003.3
20260504204705 56 207 3.5 6.1 0.00 0.31 0.31 76 1003.3
20260504202704 57 234 2.6 5.2 0.00 0.31 0.31 75 1003.4
20260504202205 56 182 4.3 7.0 0.00 0.31 0.31 75 1003.5
20260504200704 57 215 2.6 5.2 0.00 0.31 0.31 75 1003.4
20260504200204 57 169 1.7 7.8 0.00 0.31 0.31 77 1003.4
20260504194705 55 171 1.7 2.6 0.00 0.31 0.31 80 1003.5
20260504194205 54 168 1.7 7.8 0.00 0.31 0.31 81 1003.6
20260504192704 55 180 2.6 6.1 0.00 0.31 0.31 78 1003.9
20260504192204 55 241 1.7 7.8 0.00 0.31 0.31 80 1003.9
20260504190705 55 216 3.5 6.1 0.00 0.31 0.31 80 1004.0
20260504190204 54 192 1.7 5.2 0.00 0.31 0.31 80 1003.9
20260504184704 51 258 1.7 2.6 0.00 0.31 0.31 83 1004.2
20260504184205 51 260 2.6 4.3 0.00 0.31 0.31 83 1004.3
20260504182704 50 264 2.6 5.2 0.00 0.31 0.31 82 1004.3
20260504182204 50 279 0.9 6.1 0.00 0.31 0.31 83 1004.3
20260504180704 50 293 3.5 7.8 0.00 0.31 0.31 82 1004.4
20260504180204 50 266 3.5 7.8 0.00 0.31 0.31 82 1004.3
20260504174705 51 253 4.3 8.7 0.00 0.31 0.31 81 1004.3
20260504174204 52 264 4.3 11.3 0.00 0.31 0.31 81 1004.3
20260504172704 52 281 5.2 7.8 0.00 0.31 0.31 83 1004.3
20260504172204 51 290 5.2 12.2 0.00 0.31 0.31 84 1004.2
20260504170704 50 284 4.3 10.4 0.00 0.31 0.31 86 1004.4
20260504170204 50 285 6.1 10.4 0.00 0.31 0.31 89 1004.4
20260504160204 45 239 1.7 2.6 0.00 0.31 0.31 93 1004.3
20260504150704 44 239 0.9 1.7 0.01 0.31 0.31 94 1004.0
20260504140706 42 238 2.6 4.3 0.09 0.30 0.30 93 1003.7
20260504140204 42 211 2.6 4.3 0.10 0.30 0.30 93 1003.6
20260504130704 41 153 0.0 0.0 0.17 0.20 0.20 91 1003.2
20260504130204 41 153 0.0 0.0 0.17 0.20 0.20 91 1003.3
20260504120204 42 153 1.7 2.6 0.03 0.03 0.03 87 1003.3
20260504110704 43 164 1.7 2.6 0.00 0.00 0.00 81 1003.6
20260504110204 42 165 2.6 6.1 0.00 0.00 0.00 80 1003.8